Showing default

COSMOS 2575, 58929

Orbit data source: Space-Track

COSMOS 2575, 58929 is a payload satellite owned by MO RF (CIS) in SSO that was launched on Fri, 09 Feb 2024 UTC via a SOYUZ-2-1V launch vehicle from the Plesetsk Missile And Space Complex (PKMTR). Payload-class satellites include a variety of spacecraft equipped with specific instruments for various scientific and technological missions. These include communications satellites like Starlink; space stations such as the ISS; scientific satellites like the Hubble; Earth observation satellites from companies like Planet Labs, Umbra, and HawkEye 360; GPS; miniature CubeSats for education and research; and military/defense satellites.

Loading next visibility...
Identifier
58929, 2024-026A
Orbit
SSO
Country
Flag of CISCIS
Related business
Manufacturer
VNIIEM
Mission
Operational Defense Imaging
Bus & Motor
EMKA, Unknown motor
Mass
520 kg wet, ~500 kg dry
Launch date (UTC)
2024-02-09 (2 years ago)
Launch vehicle
SOYUZ-2-1V
Launch site
Plesetsk Missile And Space Complex (PKMTR)
Object type
Payload
Rocket body
Debris
Shape & HBR
Cyl + 2 Pan, 1.5 m
Radar Cross Section
3.727 m², Large (>1 m²)

Expand to show TLE details & history
Last TLE update: 5 days ago

TLE from 5 days ago
0 COSMOS 2575
1 58929U 24026A   26155.29719447  .00029405  00000-0  19533-3 0  9993
2 58929  96.6196  39.9093 0002104  86.0298 274.1210 15.75415261133602
Epoch: 2026-06-04T07:07Z
TLE epoch observation values (Epoch: 2026-06-04T07:07:57.602Z)
Latitude
0.00003°
Longitude
40.17581°
Altitude
346.535 km
Speed
7.701 km/s
True Right ascension
02h 39m 38s
True Declination
0° 00' 00"
Sunlit
Object was in daylight at epoch
Visualization orbit readout
Latitude
Unknown
Longitude
Unknown
Altitude
Unknown
Speed
Unknown
Apparent Right ascension
Unknown
Apparent Declination
Unknown
Sunlit
N/A
Visualization observer readout
Local Sidereal Time
21:36:29
Azimuth
Unknown
Elevation
Unknown
Doppler factor
Unknown
Orbital elements
Apogee altitude
341.723 km
Perigee altitude
338.896 km
Semi-major axis
6,718.446 km
Eccentricity
0.00021
Inclination
96.6196°
RAAN
39.9093°
Arg. of periapsis
86.0298°
True anomaly
274.09695°
Mean anomaly
274.121°
Eccentric anomaly
274.10898°
Mean motion
3.9413 °/min
Orbital period
91.34 mins
BSTAR
0.00019533
Loading maneuver chart data...
Computing Atmospheric mass density...
Loading historical data...
Loading historical data...
Loading historical data...
Loading historical data...
Loading historical data...
Loading historical data...
Loading historical data...
Other satellites on launch #26 in the year 2024 (2024-02-09 UTC)

Documentation

Showing up to 5 results
|